Погода в Чиралы

Турция     36°25′00″N   30°28′39″E
темп.,
°C
ветер,
м/с
пор.,
м/с
влажн.,
%
обл.,
%
осадки,
мм/ч
давл.,
гПа
погр.,
м
7 мая, пт
пт700:00+19сз225758 0.0 101218
03:00+19сз1150100 0.0 101213
06:00+18зсз1151100 0.0 101311
09:00+23юв1145100 0.0 1014364
12:00+25ююв43395 0.0 10141263
15:00+26ю444289 0.0 10141013
18:00+25ююз224495 0.0 1013419
21:00+19с226717 0.0 101547
8 мая, сб
сб800:00+19ссз116512 0.0 101418
03:00+18ссз22625 0.0 101414
06:00+18с225626 0.0 101313
09:00+23ююв2148100 0.0 1014339
12:00+24юв3247100 0.0 1015628
15:00+25ююв3345100 0.0 1014705
18:00+22вюв2253100 0.0 1012285
21:00+19с226157 0.0 101213
9 мая, вс
вс900:00+19ссз33493 0.0 101228
03:00+19ссз22400 0.0 101113
06:00+19ссз33370 0.0 101120
09:00+24всв23340 0.0 1011578
12:00+28вюв34290 0.0 10101247
15:00+29юв24300 0.0 10091484
18:00+27всв23342 0.0 1009662
21:00+22ссз22421 0.0 101019
10 мая, пн
пн1000:00+20с34420 0.0 101162
03:00+18с33435 0.0 101257
06:00+18с34380 0.0 101160
09:00+22в23350 0.0 1013437
12:00+25в33300 0.0 1013905
15:00+26ююв32280 0.0 10121071
18:00+25ююз32370 0.0 1010613
21:00+19ссз22530 0.0 101229
11 мая, вт
вт1100:00+19ссз22420 0.0 101116
03:00+18ссз22380 0.0 101019
06:00+17ссз22380 0.0 101141
09:00+23всв22310 0.0 1011398
12:00+25юв32260 0.0 1011904
15:00+26ююв43270 0.0 10101150
18:00+25ююз32333 0.0 1009593
21:00+19ссз23525 0.0 101040